datetime,flow volume
1914-10-30,4800.0
1914-10-31,4740.49587
1914-11-01,4680.99174
1914-11-02,4621.4876
1914-11-03,4502.47934
1914-11-04,4383.47107
1914-11-05,4264.46281
1914-11-06,3887.60331
1914-11-07,3728.92562
1914-11-08,3570.24793
1914-11-09,3411.57025
1914-11-10,3332.2314
1914-11-11,3252.89256
1914-11-12,3173.55372
1914-11-13,3094.21488
1914-11-14,3034.71074
1914-11-15,2955.3719
1914-11-16,2876.03306
1914-11-17,2816.52893
1914-11-18,2757.02479
1914-11-19,2717.35537
1914-11-20,2677.68595
1914-11-21,2578.5124
1914-11-22,2499.17355
1914-11-23,2400.0
1914-11-24,2400.0
1914-11-25,2400.0
1914-11-26,2400.0
1914-11-27,2400.0
1914-11-28,2261.15702
1914-11-29,2400.0
1914-11-30,2400.0
1914-12-01,2400.0
1914-12-02,2400.0
1914-12-03,2320.66116
1914-12-04,2261.15702
1914-12-05,2201.65289
1914-12-06,2142.14876
1914-12-07,2142.14876
1914-12-08,2142.14876
1914-12-09,2142.14876
1914-12-10,2142.14876
1914-12-11,2062.80992
1914-12-12,1983.47107
1914-12-13,1904.13223
1914-12-14,1606.61157
1914-12-15,1309.09091
1914-12-16,1001.65289
1914-12-17,1150.41322
1914-12-18,1497.52066
1914-12-19,1705.78512
1914-12-20,1904.13223
1914-12-21,1983.47107
1914-12-22,2062.80992
1914-12-23,2142.14876
1914-12-24,2142.14876
1914-12-25,2142.14876
1914-12-26,2261.15702
1914-12-27,2400.0
1914-12-28,2400.0
1914-12-29,2400.0
1914-12-30,2201.65289
1914-12-31,2023.1405
1915-01-01,1666.1157
1915-01-02,1467.7686
1915-01-03,1249.58678
1915-01-04,1348.76033
1915-01-05,1447.93388
1915-01-06,1547.10744
1915-01-07,1666.1157
1915-01-08,1785.12397
1915-01-09,1904.13223
1915-01-10,1785.12397
1915-01-11,1963.63636
1915-01-12,2142.14876
1915-01-13,2142.14876
1915-01-14,2142.14876
1915-01-15,2142.14876
1915-01-16,2142.14876
1915-01-17,2142.14876
1915-01-18,2142.14876
1915-01-19,2142.14876
1915-01-20,2142.14876
1915-01-21,2023.1405
1915-01-22,1904.13223
1915-01-23,1725.61983
1915-01-24,1547.10744
1915-01-25,1844.6281
1915-01-26,2142.14876
1915-01-27,1904.13223
1915-01-28,2023.1405
1915-01-29,2142.14876
1915-01-30,4085.95041
1915-01-31,3907.43802
1915-02-01,4264.46281
1915-02-02,4621.4876
1915-02-03,4522.31405
1915-02-04,4442.97521
1915-02-05,3570.24793
1915-02-06,2677.68595
1915-02-07,2419.83471
1915-02-08,2142.14876
1915-02-09,2142.14876
1915-02-10,2261.15702
1915-02-11,5910.7438
1915-02-12,9560.33058
1915-02-13,8489.2562
1915-02-14,7418.18182
1915-02-15,5335.53719
1915-02-16,3252.89256
1915-02-17,4561.98347
1915-02-18,5871.07438
1915-02-19,6109.09091
1915-02-20,7973.55372
1915-02-21,6684.29752
1915-02-22,5395.04132
1915-02-23,4403.30579
1915-02-24,3411.57025
1915-02-25,2955.3719
1915-02-26,2895.86777
1915-02-27,2816.52893
1915-02-28,3193.38843
1915-03-01,3570.24793
1915-03-02,3411.57025
1915-03-03,3252.89256
1915-03-04,3094.21488
1915-03-05,2737.19008
1915-03-06,2400.0
1915-03-07,2221.4876
1915-03-08,2023.1405
1915-03-09,1963.63636
1915-03-10,1904.13223
1915-03-11,1963.63636
1915-03-12,2023.1405
1915-03-13,2221.4876
1915-03-14,2400.0
1915-03-15,2340.49587
1915-03-16,2261.15702
1915-03-17,4264.46281
1915-03-18,4978.5124
1915-03-19,4978.5124
1915-03-20,5176.8595
1915-03-21,4978.5124
1915-03-22,4621.4876
1915-03-23,3094.21488
1915-03-24,4085.95041
1915-03-25,7140.49587
1915-03-26,7973.55372
1915-03-27,7140.49587
1915-03-28,9560.33058
1915-03-29,9877.68595
1915-03-30,9560.33058
1915-03-31,9877.68595
1915-04-01,7973.55372
1915-04-02,7418.18182
1915-04-03,7973.55372
1915-04-04,8608.26446
1915-04-05,11226.4463
1915-04-06,13923.9669
1915-04-07,16383.4711
1915-04-08,19021.4876
1915-04-09,16026.4463
1915-04-10,13249.5868
1915-04-11,12238.0165
1915-04-12,10552.0661
1915-04-13,11563.6364
1915-04-14,12912.3967
1915-04-15,15312.3967
1915-04-16,18267.7686
1915-04-17,21223.1405
1915-04-18,22413.2231
1915-04-19,27570.2479
1915-04-20,25983.4711
1915-04-21,19398.3471
1915-04-22,23603.3058
1915-04-23,19398.3471
1915-04-24,19775.2066
1915-04-25,16026.4463
1915-04-26,16026.4463
1915-04-27,13923.9669
1915-04-28,13586.7769
1915-04-29,14261.157
1915-04-30,22413.2231
1915-05-01,25983.4711
1915-05-02,25983.4711
1915-05-03,21619.8347
1915-05-04,17890.9091
1915-05-05,14598.3471
1915-05-06,14955.3719
1915-05-07,14598.3471
1915-05-08,12912.3967
1915-05-09,11563.6364
1915-05-10,11226.4463
1915-05-11,10552.0661
1915-05-12,9877.68595
1915-05-13,11563.6364
1915-05-14,18644.6281
1915-05-15,25586.7769
1915-05-16,25983.4711
1915-05-17,24595.0413
1915-05-18,24000.0
1915-05-19,25586.7769
1915-05-20,25983.4711
1915-05-21,21223.1405
1915-05-22,20628.0992
1915-05-23,18644.6281
1915-05-24,16026.4463
1915-05-25,15669.4215
1915-05-26,17890.9091
1915-05-27,19021.4876
1915-05-28,17137.1901
1915-05-29,15312.3967
1915-05-30,17137.1901
1915-05-31,17514.0496
1915-06-01,17514.0496
1915-06-02,17890.9091
1915-06-03,20429.7521
1915-06-04,23206.6116
1915-06-05,22413.2231
1915-06-06,15669.4215
1915-06-07,14261.157
1915-06-08,12575.2066
1915-06-09,9560.33058
1915-06-10,10889.2562
1915-06-11,13586.7769
1915-06-12,18267.7686
1915-06-13,23603.3058
1915-06-14,24198.3471
1915-06-15,21223.1405
1915-06-16,19398.3471
1915-06-17,19775.2066
1915-06-18,21619.8347
1915-06-19,23603.3058
1915-06-20,24000.0
1915-06-21,25586.7769
1915-06-22,24595.0413
1915-06-23,24000.0
1915-06-24,24198.3471
1915-06-25,24198.3471
1915-06-26,24000.0
1915-06-27,22413.2231
1915-06-28,20628.0992
1915-06-29,19021.4876
1915-06-30,18267.7686
1915-07-01,17890.9091
1915-07-02,17137.1901
1915-07-03,16760.3306
1915-07-04,12575.2066
1915-07-05,12575.2066
1915-07-06,10889.2562
1915-07-07,13586.7769
1915-07-08,12238.0165
1915-07-09,10552.0661
1915-07-10,10552.0661
1915-07-11,9242.97521
1915-07-12,8925.61983
1915-07-13,9242.97521
1915-07-14,9560.33058
1915-07-15,7418.18182
1915-07-16,7140.49587
1915-07-17,7418.18182
1915-07-18,6585.12397
1915-07-19,5633.05785
1915-07-20,5176.8595
1915-07-21,6109.09091
1915-07-22,5871.07438
1915-07-23,8925.61983
1915-07-24,8925.61983
1915-07-25,12238.0165
1915-07-26,17137.1901
1915-07-27,37685.9504
1915-07-28,43438.0165
1915-07-29,22809.9174
1915-07-30,14955.3719
1915-07-31,9560.33058
1915-08-01,7695.86777
1915-08-02,6585.12397
1915-08-03,5395.04132
1915-08-04,4978.5124
1915-08-05,4442.97521
1915-08-06,3907.43802
1915-08-07,3728.92562
1915-08-08,3570.24793
1915-08-09,4621.4876
1915-08-10,4621.4876
1915-08-11,4085.95041
1915-08-12,3728.92562
1915-08-13,3411.57025
1915-08-14,2955.3719
1915-08-15,3411.57025
1915-08-16,2816.52893
1915-08-17,2538.84298
1915-08-18,2538.84298
1915-08-19,2400.0
1915-08-20,2400.0
1915-08-21,2538.84298
1915-08-22,2261.15702
1915-08-23,1904.13223
1915-08-24,2023.1405
1915-08-25,2023.1405
1915-08-26,2400.0
1915-08-27,3728.92562
1915-08-28,1398.34711
1915-08-29,1447.93388
1915-08-30,1606.61157
1915-08-31,1100.82645
1915-09-01,1150.41322
1915-09-02,1666.1157
1915-09-03,1249.58678
1915-09-04,1051.23967
1915-09-05,1051.23967
1915-09-06,872.72727
1915-09-07,833.05785
1915-09-08,1666.1157
1915-09-09,1497.52066
1915-09-10,1348.76033
1915-09-11,1001.65289
1915-09-12,912.39669
1915-09-13,753.71901
1915-09-14,872.72727
1915-09-15,872.72727
1915-09-16,833.05785
1915-09-17,872.72727
1915-09-18,833.05785
1915-09-19,952.06612
1915-09-20,1150.41322
1915-09-21,1100.82645
1915-09-22,1100.82645
1915-09-23,1100.82645
1915-09-24,753.71901
1915-09-25,1447.93388
1915-09-26,9560.33058
1915-09-27,11563.6364
1915-09-28,6585.12397
1915-09-29,4264.46281
1915-09-30,3570.24793
1915-10-01,3887.60331
1915-10-02,3054.54545
1915-10-03,3054.54545
1915-10-04,2737.19008
1915-10-05,2598.34711
1915-10-06,2737.19008
1915-10-07,2360.33058
1915-10-08,3213.22314
1915-10-09,2023.1405
1915-10-10,2161.98347
1915-10-11,2023.1405
1915-10-12,1757.35537
1915-10-13,1757.35537
1915-10-14,1515.3719
1915-10-15,1515.3719
1915-10-16,1515.3719
1915-10-17,1515.3719
1915-10-18,1515.3719
1915-10-19,1402.31405
1915-10-20,1293.22314
1915-10-21,1293.22314
1915-10-22,1192.06612
1915-10-23,1293.22314
1915-10-24,1402.31405
1915-10-25,1457.85124
1915-10-26,1346.77686
1915-10-27,1402.31405
1915-10-28,1346.77686
1915-10-29,1192.06612
1915-10-30,1094.87603
1915-10-31,1192.06612
1915-11-01,1142.47934
1915-11-02,1118.67769
1915-11-03,1094.87603
1915-11-04,1168.26446
1915-11-05,1241.65289
1915-11-06,1094.87603
1915-11-07,1094.87603
1915-11-08,1402.31405
1915-11-09,1320.99174
1915-11-10,1241.65289
1915-11-11,1408.26446
1915-11-12,1572.89256
1915-11-13,1543.1405
1915-11-14,1515.3719
1915-11-15,1305.12397
1915-11-16,1094.87603
1915-11-17,1142.47934
1915-11-18,1192.06612
1915-11-19,1352.72727
1915-11-20,1515.3719
1915-11-21,1402.31405
1915-11-22,1457.85124
1915-11-23,1430.08264
1915-11-24,1402.31405
1915-11-25,1634.38017
1915-11-26,1574.87603
1915-11-27,1515.3719
1915-11-28,1293.22314
1915-11-29,1241.65289
1915-11-30,1192.06612
1915-12-01,1192.06612
1915-12-02,1192.06612
1915-12-03,1297.19008
1915-12-04,1402.31405
1915-12-05,1547.10744
1915-12-06,1693.8843
1915-12-07,1604.6281
1915-12-08,1515.3719
1915-12-09,1402.31405
1915-12-10,1348.76033
1915-12-11,1293.22314
1915-12-12,1432.06612
1915-12-13,1572.89256
1915-12-14,1572.89256
1915-12-15,1572.89256
1915-12-16,1543.1405
1915-12-17,1515.3719
1915-12-18,1463.80165
1915-12-19,1402.31405
1915-12-20,1241.65289
1915-12-21,1080.99174
1915-12-22,920.33058
1915-12-23,940.16529
1915-12-24,961.98347
1915-12-25,920.33058
1915-12-26,880.66116
1915-12-27,825.12397
1915-12-28,769.58678
1915-12-29,932.2314
1915-12-30,1094.87603
1915-12-31,1005.61983
1916-01-01,1090.90909
1916-01-02,1190.08264
1916-01-03,1160.33058
1916-01-04,1140.49587
1916-01-05,1051.23967
1916-01-06,1507.43802
1916-01-07,1666.1157
1916-01-08,1824.79339
1916-01-09,1685.95041
1916-01-10,2062.80992
1916-01-11,2439.66942
1916-01-12,2439.66942
1916-01-13,1715.70248
1916-01-14,1001.65289
1916-01-15,1090.90909
1916-01-16,961.98347
1916-01-17,1894.21488
1916-01-18,2737.19008
1916-01-19,7160.33058
1916-01-20,4165.28926
1916-01-21,3986.77686
1916-01-22,2895.86777
1916-01-23,1824.79339
1916-01-24,1953.71901
1916-01-25,2082.64463
1916-01-26,2737.19008
1916-01-27,3371.90083
1916-01-28,11484.2975
1916-01-29,5137.19008
1916-01-30,3352.06612
1916-01-31,1576.8595
1916-02-01,2102.47934
1916-02-02,2598.34711
1916-02-03,3114.04959
1916-02-04,3629.75207
1916-02-05,3629.75207
1916-02-06,2657.85124
1916-02-07,4740.49587
1916-02-08,1693.8843
1916-02-09,2360.33058
1916-02-10,2221.4876
1916-02-11,2221.4876
1916-02-12,2082.64463
1916-02-13,2519.00826
1916-02-14,2360.33058
1916-02-15,2082.64463
1916-02-16,1951.73554
1916-02-17,2360.33058
1916-02-18,2975.20661
1916-02-19,3133.8843
1916-02-20,3054.54545
1916-02-21,3292.56198
1916-02-22,3292.56198
1916-02-23,3292.56198
1916-02-24,2975.20661
1916-02-25,2221.4876
1916-02-26,2816.52893
1916-02-27,2657.85124
1916-02-28,3133.8843
1916-02-29,3451.23967
1916-03-01,3629.75207
1916-03-02,4343.80165
1916-03-03,2737.19008
1916-03-04,2975.20661
1916-03-05,2657.85124
1916-03-06,3133.8843
1916-03-07,5990.08264
1916-03-08,5553.71901
1916-03-09,3629.75207
1916-03-10,5553.71901
1916-03-11,8747.10744
1916-03-12,11484.2975
1916-03-13,12119.0083
1916-03-14,14856.1984
1916-03-15,16661.157
1916-03-16,13467.7686
1916-03-17,12119.0083
1916-03-18,14142.1488
1916-03-19,13130.5785
1916-03-20,16284.2975
1916-03-21,16284.2975
1916-03-22,18942.1488
1916-03-23,31338.843
1916-03-24,32132.2314
1916-03-25,26380.1653
1916-03-26,16859.5041
1916-03-27,12793.3884
1916-03-28,11166.9422
1916-03-29,11801.6529
1916-03-30,13804.9587
1916-03-31,17038.0165
1916-04-01,14142.1488
1916-04-02,13606.6116
1916-04-03,12119.0083
1916-04-04,12456.1984
1916-04-05,13467.7686
1916-04-06,19338.843
1916-04-07,14856.1984
1916-04-08,11682.6446
1916-04-09,10849.5868
1916-04-10,9619.83471
1916-04-11,10532.2314
1916-04-12,12793.3884
1916-04-13,15927.2727
1916-04-14,15213.2231
1916-04-15,15570.2479
1916-04-16,12793.3884
1916-04-17,11801.6529
1916-04-18,13467.7686
1916-04-19,15570.2479
1916-04-20,16661.157
1916-04-21,13467.7686
1916-04-22,12952.0661
1916-04-23,12793.3884
1916-04-24,15748.7603
1916-04-25,18942.1488
1916-04-26,19735.5372
1916-04-27,21421.4876
1916-04-28,21024.7934
1916-04-29,20231.405
1916-04-30,21818.1818
1916-05-01,23801.6529
1916-05-02,23801.6529
1916-05-03,17414.876
1916-05-04,15709.0909
1916-05-05,13804.9587
1916-05-06,14499.1736
1916-05-07,19735.5372
1916-05-08,21421.4876
1916-05-09,25388.4298
1916-05-10,27768.595
1916-05-11,29553.719
1916-05-12,30743.8017
1916-05-13,29752.0661
1916-05-14,25785.124
1916-05-15,27768.595
1916-05-16,19735.5372
1916-05-17,16284.2975
1916-05-18,14856.1984
1916-05-19,13467.7686
1916-05-20,12555.3719
1916-05-21,13130.5785
1916-05-22,14856.1984
1916-05-23,14142.1488
1916-05-24,13130.5785
1916-05-25,12456.1984
1916-05-26,10849.5868
1916-05-27,11801.6529
1916-05-28,12793.3884
1916-05-29,13804.9587
1916-05-30,15927.2727
1916-05-31,17414.876
1916-06-01,20231.405
1916-06-02,19338.843
1916-06-03,17791.7355
1916-06-04,19338.843
1916-06-05,19735.5372
1916-06-06,20231.405
1916-06-07,22809.9174
1916-06-08,20231.405
1916-06-09,22611.5703
1916-06-10,21818.1818
1916-06-11,24198.3471
1916-06-12,26380.1653
1916-06-13,28561.9835
1916-06-14,27173.5537
1916-06-15,26776.8595
1916-06-16,25785.124
1916-06-17,24595.0413
1916-06-18,24396.6942
1916-06-19,22214.876
1916-06-20,22214.876
1916-06-21,22611.5703
1916-06-22,21024.7934
1916-06-23,18942.1488
1916-06-24,17613.2231
1916-06-25,15927.2727
1916-06-26,15570.2479
1916-06-27,14856.1984
1916-06-28,14142.1488
1916-06-29,14499.1736
1916-06-30,14142.1488
1916-07-01,12793.3884
1916-07-02,12456.1984
1916-07-03,12119.0083
1916-07-04,12119.0083
1916-07-05,11166.9422
1916-07-06,10849.5868
1916-07-07,9322.31405
1916-07-08,9480.99174
1916-07-09,8747.10744
1916-07-10,11484.2975
1916-07-11,13804.9587
1916-07-12,15213.2231
1916-07-13,13130.5785
1916-07-14,13646.281
1916-07-15,12119.0083
1916-07-16,11484.2975
1916-07-17,11484.2975
1916-07-18,10532.2314
1916-07-19,9758.67769
1916-07-20,8469.42149
1916-07-21,7676.03306
1916-07-22,6684.29752
1916-07-23,6446.28099
1916-07-24,5771.90083
1916-07-25,5553.71901
1916-07-26,5990.08264
1916-07-27,5990.08264
1916-07-28,10214.876
1916-07-29,11484.2975
1916-07-30,8885.95041
1916-07-31,12456.1984
1916-08-01,15927.2727
1916-08-02,18942.1488
1916-08-03,28760.3306
1916-08-04,26380.1653
1916-08-05,20628.0992
1916-08-06,16462.8099
1916-08-07,22611.5703
1916-08-08,22214.876
1916-08-09,16661.157
1916-08-10,14499.1736
1916-08-11,16284.2975
1916-08-12,17791.7355
1916-08-13,17791.7355
1916-08-14,16284.2975
1916-08-15,18942.1488
1916-08-16,17038.0165
1916-08-17,18545.4546
1916-08-18,15570.2479
1916-08-19,14142.1488
1916-08-20,14856.1984
1916-08-21,10849.5868
1916-08-22,9024.79339
1916-08-23,6922.31405
1916-08-24,6208.26446
1916-08-25,5771.90083
1916-08-26,5335.53719
1916-08-27,4740.49587
1916-08-28,4740.49587
1916-08-29,4542.14876
1916-08-30,4938.84298
1916-08-31,4740.49587
1916-09-01,4938.84298
1916-09-02,4542.14876
1916-09-03,4165.28926
1916-09-04,3907.43802
1916-09-05,3728.92562
1916-09-06,3728.92562
1916-09-07,3629.75207
1916-09-08,3451.23967
1916-09-09,4085.95041
1916-09-10,3986.77686
1916-09-11,11008.2645
1916-09-12,11484.2975
1916-09-13,8469.42149
1916-09-14,7676.03306
1916-09-15,7160.33058
1916-09-16,6684.29752
1916-09-17,5771.90083
1916-09-18,5137.19008
1916-09-19,4938.84298
1916-09-20,4740.49587
1916-09-21,4740.49587
1916-09-22,4740.49587
1916-09-23,4343.80165
1916-09-24,4085.95041
1916-09-25,4026.44628
1916-09-26,3986.77686
1916-09-27,3808.26446
1916-09-28,3808.26446
1916-09-29,3629.75207
1916-09-30,3629.75207
1916-10-01,
1916-10-02,
1916-10-03,
1916-10-04,
1916-10-05,
1916-10-06,
1916-10-07,
1916-10-08,
1916-10-09,
1916-10-10,
1916-10-11,
1916-10-12,
1916-10-13,
1916-10-14,
1916-10-15,
1916-10-16,
1916-10-17,
1916-10-18,
1916-10-19,
1916-10-20,
1916-10-21,
1916-10-22,
1916-10-23,
1916-10-24,
1916-10-25,
1916-10-26,
1916-10-27,
1916-10-28,
1916-10-29,
1916-10-30,
1916-10-31,
1916-11-01,
1916-11-02,
1916-11-03,
1916-11-04,
1916-11-05,
1916-11-06,
1916-11-07,
1916-11-08,
1916-11-09,
1916-11-10,
1916-11-11,
1916-11-12,
1916-11-13,
1916-11-14,
1916-11-15,
1916-11-16,
1916-11-17,
1916-11-18,
1916-11-19,
1916-11-20,
1916-11-21,
1916-11-22,
1916-11-23,
1916-11-24,
1916-11-25,
1916-11-26,
1916-11-27,
1916-11-28,
1916-11-29,
1916-11-30,
1916-12-01,
1916-12-02,
1916-12-03,
1916-12-04,
1916-12-05,
1916-12-06,
1916-12-07,
1916-12-08,
1916-12-09,
1916-12-10,
1916-12-11,
1916-12-12,
1916-12-13,
1916-12-14,
1916-12-15,
1916-12-16,
1916-12-17,
1916-12-18,
1916-12-19,
1916-12-20,
1916-12-21,
1916-12-22,
1916-12-23,
1916-12-24,
1916-12-25,
1916-12-26,
1916-12-27,
1916-12-28,
1916-12-29,
1916-12-30,
1916-12-31,
1917-01-01,
1917-01-02,
1917-01-03,
1917-01-04,
1917-01-05,
1917-01-06,
1917-01-07,
1917-01-08,
1917-01-09,
1917-01-10,
1917-01-11,
1917-01-12,
1917-01-13,
1917-01-14,
1917-01-15,
1917-01-16,
1917-01-17,
1917-01-18,
1917-01-19,
1917-01-20,
1917-01-21,
1917-01-22,
1917-01-23,
1917-01-24,
1917-01-25,
1917-01-26,
1917-01-27,
1917-01-28,
1917-01-29,
1917-01-30,
1917-01-31,
1917-02-01,
1917-02-02,
1917-02-03,
1917-02-04,
1917-02-05,
1917-02-06,
1917-02-07,
1917-02-08,
1917-02-09,
1917-02-10,
1917-02-11,
1917-02-12,
1917-02-13,
1917-02-14,
1917-02-15,
1917-02-16,
1917-02-17,
1917-02-18,
1917-02-19,
1917-02-20,
1917-02-21,
1917-02-22,
1917-02-23,
1917-02-24,
1917-02-25,
1917-02-26,
1917-02-27,
1917-02-28,
1917-03-01,2816.52893
1917-03-02,2519.00826
1917-03-03,2102.47934
1917-03-04,1963.63636
1917-03-05,1632.39669
1917-03-06,1503.47107
1917-03-07,1566.94215
1917-03-08,1830.7438
1917-03-09,1697.85124
1917-03-10,1697.85124
1917-03-11,1830.7438
1917-03-12,1830.7438
1917-03-13,1765.28926
1917-03-14,1697.85124
1917-03-15,1830.7438
1917-03-16,1830.7438
1917-03-17,1963.63636
1917-03-18,1830.7438
1917-03-19,1697.85124
1917-03-20,1765.28926
1917-03-21,2519.00826
1917-03-22,3808.26446
1917-03-23,4165.28926
1917-03-24,3808.26446
1917-03-25,3292.56198
1917-03-26,3133.8843
1917-03-27,3629.75207
1917-03-28,4343.80165
1917-03-29,4165.28926
1917-03-30,6922.31405
1917-03-31,7160.33058
1917-04-01,9917.35537
1917-04-02,8191.73554
1917-04-03,5771.90083
1917-04-04,5137.19008
1917-04-05,4938.84298
1917-04-06,4165.28926
1917-04-07,5137.19008
1917-04-08,7418.18182
1917-04-09,7933.8843
1917-04-10,9024.79339
1917-04-11,12793.3884
1917-04-12,10532.2314
1917-04-13,10214.876
1917-04-14,13130.5785
1917-04-15,10849.5868
1917-04-16,11484.2975
1917-04-17,10849.5868
1917-04-18,12119.0083
1917-04-19,9619.83471
1917-04-20,12793.3884
1917-04-21,9024.79339
1917-04-22,7676.03306
1917-04-23,9024.79339
1917-04-24,16661.157
1917-04-25,18942.1488
1917-04-26,21421.4876
1917-04-27,24595.0413
1917-04-28,22611.5703
1917-04-29,21421.4876
1917-04-30,18545.4546
1917-05-01,17414.876
1917-05-02,15570.2479
1917-05-03,13804.9587
1917-05-04,13804.9587
1917-05-05,12793.3884
1917-05-06,13467.7686
1917-05-07,13467.7686
1917-05-08,11166.9422
1917-05-09,12456.1984
1917-05-10,13130.5785
1917-05-11,16661.157
1917-05-12,17038.0165
1917-05-13,17038.0165
1917-05-14,15570.2479
1917-05-15,15213.2231
1917-05-16,23801.6529
1917-05-17,26975.2066
1917-05-18,29157.0248
1917-05-19,29157.0248
1917-05-20,29157.0248
1917-05-21,26975.2066
1917-05-22,26380.1653
1917-05-23,19338.843
1917-05-24,18545.4546
1917-05-25,19735.5372
1917-05-26,17791.7355
1917-05-27,17414.876
1917-05-28,15570.2479
1917-05-29,13804.9587
1917-05-30,13130.5785
1917-05-31,14499.1736
1917-06-01,14856.1984
1917-06-02,16284.2975
1917-06-03,13130.5785
1917-06-04,13467.7686
1917-06-05,15213.2231
1917-06-06,18942.1488
1917-06-07,21421.4876
1917-06-08,20231.405
1917-06-09,22214.876
1917-06-10,25586.7769
1917-06-11,31537.1901
1917-06-12,34512.3967
1917-06-13,32925.6198
1917-06-14,32925.6198
1917-06-15,33917.3554
1917-06-16,35504.1322
1917-06-17,37090.9091
1917-06-18,37090.9091
1917-06-19,35900.8265
1917-06-20,36495.8678
1917-06-21,33917.3554
1917-06-22,31537.1901
1917-06-23,30148.7603
1917-06-24,30148.7603
1917-06-25,29553.719
1917-06-26,30545.4546
1917-06-27,30148.7603
1917-06-28,29553.719
1917-06-29,28760.3306
1917-06-30,28165.2893
1917-07-01,29157.0248
1917-07-02,28165.2893
1917-07-03,27768.595
1917-07-04,25190.0826
1917-07-05,23404.9587
1917-07-06,21818.1818
1917-07-07,19735.5372
1917-07-08,18168.595
1917-07-09,20628.0992
1917-07-10,20231.405
1917-07-11,19338.843
1917-07-12,18168.595
1917-07-13,17791.7355
1917-07-14,17038.0165
1917-07-15,15927.2727
1917-07-16,15213.2231
1917-07-17,13804.9587
1917-07-18,13130.5785
1917-07-19,10849.5868
1917-07-20,11484.2975
1917-07-21,11801.6529
1917-07-22,12456.1984
1917-07-23,12456.1984
1917-07-24,11166.9422
1917-07-25,12456.1984
1917-07-26,12793.3884
1917-07-27,15927.2727
1917-07-28,11166.9422
1917-07-29,12456.1984
1917-07-30,11484.2975
1917-07-31,9917.35537
1917-08-01,10532.2314
1917-08-02,9322.31405
1917-08-03,8191.73554
1917-08-04,7160.33058
1917-08-05,6684.29752
1917-08-06,6446.28099
1917-08-07,6208.26446
1917-08-08,5771.90083
1917-08-09,5335.53719
1917-08-10,5335.53719
1917-08-11,4938.84298
1917-08-12,4938.84298
1917-08-13,7933.8843
1917-08-14,6684.29752
1917-08-15,7418.18182
1917-08-16,7160.33058
1917-08-17,6684.29752
1917-08-18,5771.90083
1917-08-19,5553.71901
1917-08-20,5137.19008
1917-08-21,4938.84298
1917-08-22,4938.84298
1917-08-23,4542.14876
1917-08-24,4165.28926
1917-08-25,3808.26446
1917-08-26,3808.26446
1917-08-27,3808.26446
1917-08-28,3629.75207
1917-08-29,3451.23967
1917-08-30,3371.90083
1917-08-31,3292.56198
1917-09-01,3133.8843
1917-09-02,3054.54545
1917-09-03,2975.20661
1917-09-04,3133.8843
1917-09-05,2895.86777
1917-09-06,2816.52893
1917-09-07,2816.52893
1917-09-08,2816.52893
1917-09-09,2816.52893
1917-09-10,2657.85124
1917-09-11,2657.85124
1917-09-12,3451.23967
1917-09-13,4343.80165
1917-09-14,3808.26446
1917-09-15,4938.84298
1917-09-16,4343.80165
1917-09-17,4938.84298
1917-09-18,4542.14876
1917-09-19,4244.6281
1917-09-20,3986.77686
1917-09-21,4542.14876
1917-09-22,3986.77686
1917-09-23,3808.26446
1917-09-24,3808.26446
1917-09-25,3808.26446
1917-09-26,3808.26446
1917-09-27,4165.28926
1917-09-28,4343.80165
1917-09-29,4343.80165
1917-09-30,4165.28926
1917-10-01,
1917-10-02,
1917-10-03,
1917-10-04,
1917-10-05,
1917-10-06,
1917-10-07,
1917-10-08,
1917-10-09,
1917-10-10,
1917-10-11,
1917-10-12,
1917-10-13,
1917-10-14,
1917-10-15,
1917-10-16,
1917-10-17,
1917-10-18,
1917-10-19,
1917-10-20,
1917-10-21,
1917-10-22,
1917-10-23,
1917-10-24,
1917-10-25,
1917-10-26,
1917-10-27,
1917-10-28,
1917-10-29,
1917-10-30,
1917-10-31,
1917-11-01,
1917-11-02,
1917-11-03,
1917-11-04,
1917-11-05,
1917-11-06,
1917-11-07,
1917-11-08,
1917-11-09,
1917-11-10,
1917-11-11,
1917-11-12,
1917-11-13,
1917-11-14,
1917-11-15,
1917-11-16,
1917-11-17,
1917-11-18,
1917-11-19,
1917-11-20,
1917-11-21,
1917-11-22,
1917-11-23,
1917-11-24,
1917-11-25,
1917-11-26,
1917-11-27,
1917-11-28,
1917-11-29,
1917-11-30,
1917-12-01,
1917-12-02,
1917-12-03,
1917-12-04,
1917-12-05,
1917-12-06,
1917-12-07,
1917-12-08,
1917-12-09,
1917-12-10,
1917-12-11,
1917-12-12,
1917-12-13,
1917-12-14,
1917-12-15,
1917-12-16,
1917-12-17,
1917-12-18,
1917-12-19,
1917-12-20,
1917-12-21,
1917-12-22,
1917-12-23,
1917-12-24,
1917-12-25,
1917-12-26,
1917-12-27,
1917-12-28,
1917-12-29,
1917-12-30,
1917-12-31,
1918-01-01,
1918-01-02,
1918-01-03,
1918-01-04,
1918-01-05,
1918-01-06,
1918-01-07,
1918-01-08,
1918-01-09,
1918-01-10,
1918-01-11,
1918-01-12,
1918-01-13,
1918-01-14,
1918-01-15,
1918-01-16,
1918-01-17,
1918-01-18,
1918-01-19,
1918-01-20,
1918-01-21,
1918-01-22,
1918-01-23,
1918-01-24,
1918-01-25,
1918-01-26,
1918-01-27,
1918-01-28,
1918-01-29,
1918-01-30,
1918-01-31,
1918-02-01,
1918-02-02,
1918-02-03,
1918-02-04,
1918-02-05,
1918-02-06,
1918-02-07,
1918-02-08,
1918-02-09,
1918-02-10,
1918-02-11,
1918-02-12,
1918-02-13,
1918-02-14,
1918-02-15,
1918-02-16,
1918-02-17,
1918-02-18,
1918-02-19,
1918-02-20,
1918-02-21,
1918-02-22,
1918-02-23,
1918-02-24,
1918-02-25,
1918-02-26,
1918-02-27,
1918-02-28,
1918-03-01,
1918-03-02,
1918-03-03,
1918-03-04,
1918-03-05,
1918-03-06,
1918-03-07,
1918-03-08,
1918-03-09,
1918-03-10,
1918-03-11,
1918-03-12,
1918-03-13,
1918-03-14,
1918-03-15,
1918-03-16,
1918-03-17,
1918-03-18,
1918-03-19,
1918-03-20,
1918-03-21,
1918-03-22,
1918-03-23,
1918-03-24,
1918-03-25,
1918-03-26,
1918-03-27,
1918-03-28,
1918-03-29,
1918-03-30,
1918-03-31,
1918-04-01,
1918-04-02,
1918-04-03,